Location: Curupao
(10.4996°N, 66.6442°W)
Time: 20:49:16
(UTC+00:00)

Chandra Rocket (1) - Pass Details

Date: 23 May 2024
Orbit: 292 x 10883 km, 28.5° (Epoch: 23 June)

Event Time Altitude Azimuth Distance (km) Brightness Sun altitude
Exits shadow 09:05:53 19° 216° (SW) 1,337 3.3 -13.9°
Maximum altitude 09:06:55 21° 193° (SSW) 1,431 3.6 -13.7°
Drops below altitude 10° 09:11:51 10° 145° (SE) 3,170 5.8 -12.6°
Sets 09:17:47 0° 133° (SE) 5,626 7.3 -11.3°
